Content
SEND FEEDBACK

Daily
Averages
Monthly
Summary
United States of America

PRAIRE DU CHIEN, WISCONSIN


Home > North America > United States > Wisconsin
Elevation: 656 feet     Latitude: 43 50N     Longitude: 091 47W

WEATHER
 
SELECT A DAY
Number of Records: 370,116;   Date Range: 4/21/99 - 8/28/14
 
SHARE

PRINT THIS DATA

[ ← Previous Day ]
WEATHER ALMANAC - JANUARY 23, 2013
[ Next Day → ]
[ °C ]   °F
Weather ElementAverageHighLow
Temperature14 °F23 °F (2:35 pm)5 °F (10:55 pm)
Dewpoint4.1 °F12.2 °F (12:55 pm)-11.2 °F (11:35 pm)
Humidity65.5 %86 % (9:35 am)47 % (11:35 pm)
Barometer30.24 in30.50 in (11:55 pm)30.11 in (1:55 pm)
Wind Speed8.7 mph21.9 mph (2:35 pm)
Wind Gust33.4 mph (6:35 pm)
Weather ElementAverage
Visibility8.1 mi
Wind DirectionSSW (192.4 °)

Weather ElementTotal
Precipitation---
Heating Degree Days51 (Base 65)
Averaged from 71 records on January 23, 2013
WEATHER CONDITIONS BREAKOUT
WIND DIRECTION BREAKOUT
WEATHER BY HOUR - JANUARY 23, 2013
[ °C ]   °F
Local TimeTemperatureDewpointHumidityBarometerVisibilityWind DirectionWind SpeedGust SpeedPrecipitationEventsConditions
12:35 AM10.4 °F-2.2 °F57 %30.29 in10.0 miSW (230°)3.5 mphOvercast
12:55 AM10.4 °F-2.2 °F57 %30.28 in10.0 miSW (220°)3.5 mphOvercast
1:15 AM10.4 °F-2.2 °F57 %30.29 in10.0 miSW (230°)3.5 mphOvercast
1:35 AM10.4 °F-2.2 °F57 %30.28 in10.0 miSSW (210°)3.5 mphOvercast
1:55 AM10.4 °F-2.2 °F57 %30.27 in10.0 miSSW (210°)3.5 mphOvercast
2:15 AM10.4 °F-2.2 °F57 %30.28 in10.0 miCalmOvercast
2:35 AM10.4 °F-0.4 °F62 %30.27 in10.0 miCalmOvercast
2:55 AM12.2 °F-0.4 °F57 %30.27 in10.0 miCalmOvercast
3:15 AM12.2 °F-0.4 °F57 %30.27 in10.0 miCalmOvercast
3:35 AM12.2 °F-0.4 °F57 %30.26 in10.0 miCalmOvercast
3:55 AM12.2 °F-0.4 °F57 %30.25 in10.0 miCalmOvercast
4:15 AM12.2 °F-0.4 °F57 %30.24 in10.0 miCalmOvercast
4:35 AM12.2 °F1.4 °F62 %30.24 in10.0 miCalmOvercast
4:55 AM12.2 °F3.2 °F67 %30.23 in5.0 miCalmSnowLight Snow
5:15 AM12.2 °F5.0 °F73 %30.23 in5.0 miCalmSnowLight Snow
5:35 AM12.2 °F5.0 °F73 %30.22 in7.0 miCalmSnowLight Snow
5:55 AM12.2 °F5.0 °F73 %30.22 in7.0 miCalmSnowLight Snow
6:15 AM12.2 °F5.0 °F73 %30.22 in4.0 miCalmSnowLight Snow
6:35 AM12.2 °F6.8 °F79 %30.21 in2.5 miCalmSnowLight Snow
6:55 AM12.2 °F6.8 °F79 %30.21 in2.5 miCalmSnowLight Snow
7:15 AM12.2 °F6.8 °F79 %30.20 in2.0 miCalmSnowLight Snow
7:35 AM12.2 °F8.6 °F85 %30.20 in1.5 miCalmSnowLight Snow
7:55 AM12.2 °F8.6 °F85 %30.20 in1.2 miCalmSnowLight Snow
8:15 AM12.2 °F8.6 °F85 %30.19 in2.5 miCalmSnowLight Snow
8:35 AM12.2 °F8.6 °F85 %30.19 in1.8 miCalmSnowLight Snow
8:55 AM14.0 °F8.6 °F79 %30.19 in1.8 miCalmSnowLight Snow
9:15 AM14.0 °F8.6 °F79 %30.19 in4.0 miSSW (210°)4.6 mphSnowLight Snow
9:35 AM14.0 °F10.4 °F86 %30.19 in4.0 miSouth (190°)3.5 mphSnowLight Snow
9:55 AM14.0 °F10.4 °F86 %30.19 in4.0 miSouth (190°)3.5 mphSnowLight Snow
10:15 AM14.0 °F10.4 °F86 %30.20 in7.0 miCalmSnowLight Snow
10:35 AM15.8 °F10.4 °F79 %30.19 in7.0 miSouth (190°)3.5 mphSnowLight Snow
10:55 AM17.6 °F10.4 °F73 %30.19 in7.0 miSSW (210°)4.6 mphSnowLight Snow
11:15 AM17.6 °F10.4 °F73 %30.18 in7.0 miWSW (250°)4.6 mphSnowLight Snow
11:35 AM17.6 °F10.4 °F73 %30.16 in10.0 miWSW (240°)8.1 mphSnowLight Snow
11:55 AM19.4 °F10.4 °F68 %30.16 in10.0 miWSW (250°)9.2 mphClear
12:15 PM21.2 °F10.4 °F63 %30.15 in10.0 miWest (270°)10.4 mph16.1 mphScattered Clouds
12:35 PM21.2 °F10.4 °F63 %30.14 in10.0 miWest (260°)10.4 mphMostly Cloudy
12:55 PM21.2 °F12.2 °F68 %30.12 in10.0 miWest (270°)15.0 mphOvercast
1:15 PM21.2 °F12.2 °F68 %30.12 in7.0 miWest (270°)16.1 mph20.7 mphOvercast
1:35 PM21.2 °F12.2 °F68 %30.12 in10.0 miWNW (290°)17.3 mphOvercast
1:55 PM21.2 °F12.2 °F68 %30.11 in10.0 miWNW (290°)16.1 mph23.0 mphOvercast
2:15 PM21.2 °F12.2 °F68 %30.11 in7.0 miWest (270°)13.8 mph23.0 mphSnowLight Snow
2:35 PM23.0 °F12.2 °F63 %30.12 in10.0 miWNW (290°)21.9 mph27.6 mphOvercast
2:55 PM21.2 °F12.2 °F68 %30.13 in10.0 miWest (280°)19.6 mph23.0 mphOvercast
3:15 PM19.4 °F12.2 °F74 %30.14 in5.0 miWest (270°)15.0 mph23.0 mphSnowLight Snow
3:35 PM19.4 °F8.6 °F63 %30.15 in10.0 miWNW (300°)18.4 mph27.6 mphMostly Cloudy
3:55 PM19.4 °F8.6 °F63 %30.16 in10.0 miWest (270°)17.3 mph24.2 mphMostly Cloudy
4:15 PM19.4 °F10.4 °F68 %30.17 in10.0 miWNW (290°)10.4 mphOvercast
4:35 PM19.4 °F8.6 °F63 %30.16 in10.0 miWNW (300°)17.3 mph21.9 mphMostly Cloudy
4:55 PM19.4 °F8.6 °F63 %30.17 in10.0 miNW (310°)15.0 mph25.3 mphMostly Cloudy
5:15 PM19.4 °F8.6 °F63 %30.18 in10.0 miWNW (290°)17.3 mph21.9 mphOvercast
5:35 PM17.6 °F8.6 °F68 %30.20 in10.0 miWNW (290°)19.6 mph27.6 mphOvercast
5:55 PM17.6 °F8.6 °F68 %30.21 in7.0 miWNW (300°)17.3 mph27.6 mphSnowLight Snow
6:15 PM17.6 °F10.4 °F73 %30.23 in7.0 miWNW (300°)15.0 mph23.0 mphSnowLight Snow
6:35 PM15.8 °F5.0 °F62 %30.24 in10.0 miNW (310°)19.6 mph33.4 mphMostly Cloudy
6:55 PM15.8 °F3.2 °F58 %30.28 in10.0 miNW (320°)19.6 mph27.6 mphScattered Clouds
7:15 PM14.0 °F1.4 °F57 %30.28 in10.0 miNW (320°)20.7 mph29.9 mphScattered Clouds
7:35 PM14.0 °F1.4 °F57 %30.30 in10.0 miNW (320°)15.0 mph25.3 mphClear
7:55 PM12.2 °F1.4 °F62 %30.32 in10.0 miNNW (330°)17.3 mph24.2 mphScattered Clouds
8:15 PM12.2 °F1.4 °F62 %30.34 in10.0 miNNW (340°)19.6 mph27.6 mphMostly Cloudy
8:35 PM10.4 °F-2.2 °F57 %30.36 in10.0 miNNW (340°)18.4 mphMostly Cloudy
8:55 PM10.4 °F-4.0 °F52 %30.37 in10.0 miNNW (340°)17.3 mph24.2 mphMostly Cloudy
9:15 PM8.6 °F-5.8 °F52 %30.39 in10.0 miNorth (350°)16.1 mph25.3 mphScattered Clouds
9:35 PM8.6 °F-7.6 °F48 %30.41 in10.0 miNorth (350°)15.0 mph21.9 mphClear
9:55 PM6.8 °F-7.6 °F52 %30.43 in10.0 miNNW (340°)11.5 mph18.4 mphScattered Clouds
10:15 PM6.8 °F-9.4 °F48 %30.44 in10.0 miNorth (10°)11.5 mphScattered Clouds
10:35 PM6.8 °F-9.4 °F48 %30.45 in10.0 miNorth (350°)15.0 mph18.4 mphClear
10:55 PM5.0 °F-9.4 °F52 %30.46 in10.0 miNorth (360°)11.5 mph19.6 mphClear
11:15 PM5.0 °F-9.4 °F52 %30.48 in10.0 miNNW (330°)8.1 mphClear
11:35 PM5.0 °F-11.2 °F47 %30.49 in10.0 miNorth (350°)10.4 mph20.7 mphClear
11:55 PM5.0 °F-9.4 °F52 %30.50 in10.0 miNorth (360°)6.9 mphClear
Hourly data recorded from KPDC, located miles away from Praire du Chien, Wisconsin







STORIES FROM OUR PARTNERS